GW1230 Weather Reports


time (UTC)temp
C
wind
direction
speed
KPH
gust
KPH
rain 1hr
cm
rain 24hr
cm
rain mn
cm
humidity
%
barometer
mb
20260905235037 21 212 1.6 3.2 0.00 0.00 0.00 54 1016.2
20260905234532 21 276 0.0 0.0 0.00 0.00 0.00 55 1016.2
20260905234027 21 242 0.0 0.0 0.00 0.00 0.00 56 1016.4
20260905233522 21 215 4.8 4.8 0.00 0.00 0.00 58 1016.2
20260905233021 21 15 3.2 3.2 0.00 0.00 0.00 59 1016.0
20260905232517 21 118 0.0 1.6 0.00 0.00 0.00 60 1016.3
20260905232013 21 69 0.0 0.0 0.00 0.00 0.00 58 1016.3
20260905231508 21 78 0.0 1.6 0.00 0.00 0.00 59 1016.4
20260905231004 21 124 0.0 1.6 0.00 0.00 0.00 57 1016.4
20260905230503 21 261 0.0 1.6 0.00 0.00 0.00 57 1016.4
20260905230001 21 184 0.0 0.0 0.00 0.00 0.00 57 1016.6
20260905225456 21 155 3.2 4.8 0.00 0.00 0.00 61 1016.4
20260905224951 20 203 0.0 0.0 0.00 0.00 0.00 60 1016.5
20260905224446 21 187 6.4 9.7 0.00 0.00 0.00 60 1016.7
20260905223945 22 256 0.0 0.0 0.00 0.00 0.00 57 1016.5
20260905223443 21 221 0.0 0.0 0.00 0.00 0.00 60 1016.8
20260905222943 20 157 4.8 4.8 0.00 0.00 0.00 58 1016.8
20260905222438 19 214 1.6 3.2 0.00 0.00 0.00 62 1016.6
20260905221934 19 216 0.0 1.6 0.00 0.00 0.00 64 1016.8
20260905221430 19 143 0.0 0.0 0.00 0.00 0.00 63 1016.9
20260905220926 19 173 3.2 4.8 0.00 0.00 0.00 64 1017.0
20260905220422 19 239 1.6 3.2 0.00 0.00 0.00 65 1017.0
20260905215921 18 260 3.2 3.2 0.00 0.00 0.00 66 1017.1
20260905215416 18 197 4.8 8.0 0.00 0.00 0.00 66 1016.9
20260905214913 18 214 8.0 8.0 0.00 0.00 0.00 65 1017.1
20260905214409 18 200 8.0 9.7 0.00 0.00 0.00 65 1017.3
20260905213908 19 170 8.0 11.3 0.00 0.00 0.00 65 1017.2
20260905213405 19 285 0.0 0.0 0.00 0.00 0.00 65 1017.1
20260905212900 19 259 0.0 0.0 0.00 0.00 0.00 65 1017.3
20260905212400 19 181 8.0 9.7 0.00 0.00 0.00 65 1017.0
20260905211853 19 220 1.6 1.6 0.00 0.00 0.00 66 1017.1
20260905211349 19 245 1.6 3.2 0.00 0.00 0.00 67 1017.4
20260905210846 18 227 4.8 4.8 0.00 0.00 0.00 67 1017.2
20260905210345 19 202 4.8 8.0 0.00 0.00 0.00 68 1017.3
20260905205844 18 236 9.7 11.3 0.00 0.00 0.00 70 1017.2
20260905205339 18 241 0.0 3.2 0.00 0.00 0.00 69 1017.3
20260905204838 18 310 3.2 3.2 0.00 0.00 0.00 68 1017.2
20260905204335 18 218 6.4 8.0 0.00 0.00 0.00 69 1017.1
20260905203833 20 274 1.6 3.2 0.00 0.00 0.00 67 1017.4
20260905203329 20 221 4.8 8.0 0.00 0.00 0.00 66 1017.5
20260905202825 20 183 1.6 3.2 0.00 0.00 0.00 65 1017.4
20260905202320 19 275 6.4 12.9 0.00 0.00 0.00 66 1017.3
20260905201815 19 212 3.2 4.8 0.00 0.00 0.00 68 1017.4
20260905201310 19 199 6.4 8.0 0.00 0.00 0.00 66 1017.5
20260905200804 18 278 4.8 8.0 0.00 0.00 0.00 70 1017.6
20260905200300 18 268 6.4 9.7 0.00 0.00 0.00 69 1017.4
20260905195753 18 264 0.0 0.0 0.00 0.00 0.00 70 1017.4
20260905195248 19 244 3.2 8.0 0.00 0.00 0.00 68 1017.5
20260905194744 18 264 4.8 4.8 0.00 0.00 0.00 71 1017.5
20260905194243 18 268 6.4 11.3 0.00 0.00 0.00 71 1017.7
20260905193743 18 246 8.0 9.7 0.00 0.00 0.00 71 1017.6
20260905193238 19 216 4.8 8.0 0.00 0.00 0.00 70 1017.7
20260905192733 18 298 8.0 9.7 0.00 0.00 0.00 71 1017.5
20260905192230 18 238 3.2 3.2 0.00 0.00 0.00 72 1017.9
20260905191728 18 225 6.4 8.0 0.00 0.00 0.00 71 1017.6
20260905191227 19 194 3.2 3.2 0.00 0.00 0.00 71 1017.8
20260905190726 19 278 6.4 9.7 0.00 0.00 0.00 68 1017.8
20260905190225 19 249 3.2 4.8 0.00 0.00 0.00 69 1017.6
20260905185724 19 311 3.2 3.2 0.00 0.00 0.00 68 1017.7
20260905185219 20 263 6.4 9.7 0.00 0.00 0.00 68 1017.8
20260905184713 19 233 3.2 3.2 0.00 0.00 0.00 70 1017.9
20260905184212 19 252 1.6 3.2 0.00 0.00 0.00 71 1017.7
20260905183711 19 246 3.2 3.2 0.00 0.00 0.00 71 1017.8
20260905183207 18 227 4.8 4.8 0.00 0.00 0.00 72 1018.2
20260905182701 18 294 1.6 1.6 0.00 0.00 0.00 72 1018.0
20260905182201 18 270 1.6 3.2 0.00 0.00 0.00 74 1018.0
20260905181656 18 204 4.8 4.8 0.00 0.00 0.00 74 1018.1
20260905181155 17 227 6.4 9.7 0.00 0.00 0.00 76 1018.0
20260905180649 18 329 8.0 9.7 0.00 0.00 0.00 74 1018.1
20260905180145 17 312 0.0 1.6 0.00 0.00 0.00 78 1018.1
20260905175644 17 273 1.6 1.6 0.00 0.00 0.00 78 1018.3
20260905175139 16 324 3.2 3.2 0.00 0.00 0.00 79 1018.3
20260905174635 17 309 1.6 1.6 0.00 0.00 0.00 79 1018.3
20260905174131 16 286 1.6 1.6 0.00 0.00 0.00 79 1018.4
20260905173626 17 281 3.2 3.2 0.00 0.00 0.00 78 1018.2
20260905173122 17 290 1.6 1.6 0.00 0.00 0.00 77 1018.1
20260905172621 18 307 4.8 8.0 0.00 0.00 0.00 76 1018.4
20260905172116 18 277 4.8 8.0 0.00 0.00 0.00 75 1018.1
20260905171612 17 168 1.6 1.6 0.00 0.00 0.00 78 1018.1
20260905171108 17 209 3.2 3.2 0.00 0.00 0.00 78 1018.2
20260905170604 16 272 1.6 1.6 0.00 0.00 0.00 80 1017.9
20260905170059 16 242 3.2 4.8 0.00 0.00 0.00 80 1018.0
20260905165554 16 280 1.6 3.2 0.00 0.00 0.00 81 1017.7
20260905165049 16 208 3.2 3.2 0.00 0.00 0.00 82 1017.7
20260905164544 16 239 3.2 3.2 0.00 0.00 0.00 84 1017.9
20260905164038 15 196 6.4 8.0 0.00 0.00 0.00 85 1017.9
20260905163534 15 271 0.0 0.0 0.00 0.00 0.00 86 1017.9
20260905163030 15 282 0.0 0.0 0.00 0.00 0.00 87 1017.9
20260905162527 14 279 0.0 0.0 0.00 0.00 0.00 87 1018.0
20260905162021 15 257 0.0 0.0 0.00 0.00 0.00 87 1018.0
20260905161521 14 285 0.0 0.0 0.00 0.00 0.00 89 1018.0
20260905161018 13 229 3.2 3.2 0.00 0.00 0.00 89 1018.0
20260905160511 13 273 3.2 4.8 0.00 0.00 0.00 89 1017.9
20260905160011 14 251 4.8 4.8 0.00 0.00 0.00 89 1018.0
20260905155506 14 257 0.0 1.6 0.00 0.00 0.00 91 1017.9
20260905155004 14 206 1.6 3.2 0.00 0.00 0.00 92 1017.8
20260905154500 13 231 0.0 0.0 0.00 0.00 0.00 93 1017.9
20260905153955 13 236 3.2 3.2 0.00 0.00 0.00 93 1018.0
20260905153452 13 262 0.0 0.0 0.00 0.00 0.00 94 1017.9
20260905152951 13 271 0.0 0.0 0.00 0.00 0.00 95 1017.9
20260905152451 13 284 0.0 0.0 0.00 0.00 0.00 95 1018.0
20260905151946 13 288 0.0 0.0 0.00 0.00 0.00 95 1017.7
20260905151441 12 294 0.0 0.0 0.00 0.00 0.00 96 1017.7
20260905150936 12 293 0.0 0.0 0.00 0.00 0.00 96 1017.8
20260905150431 12 289 0.0 0.0 0.00 0.00 0.00 96 1017.6
20260905145927 12 291 0.0 0.0 0.00 0.00 0.00 96 1017.6
20260905145421 12 291 0.0 0.0 0.00 0.00 0.00 96 1017.3
20260905144921 12 290 0.0 0.0 0.00 0.00 0.00 96 1017.8
20260905144417 12 283 0.0 0.0 0.00 0.00 0.00 96 1017.6
20260905143915 12 293 0.0 0.0 0.00 0.00 0.00 96 1017.6
20260905143410 12 289 0.0 0.0 0.00 0.00 0.00 96 1017.4
20260905142909 12 294 0.0 0.0 0.00 0.00 0.00 96 1017.5
20260905142408 12 293 0.0 0.0 0.00 0.00 0.00 96 1017.3
20260905141904 12 291 0.0 0.0 0.00 0.00 0.00 96 1017.2
20260905141359 12 296 0.0 0.0 0.00 0.00 0.00 96 1017.3
20260905140855 11 294 0.0 0.0 0.00 0.00 0.00 96 1017.2
20260905140350 11 313 0.0 0.0 0.00 0.00 0.00 96 1017.5
20260905135848 11 302 0.0 0.0 0.00 0.00 0.00 96 1017.2
20260905135344 11 299 0.0 0.0 0.00 0.00 0.00 96 1017.2
20260905134839 11 305 0.0 0.0 0.00 0.00 0.00 96 1017.3
20260905134338 11 318 0.0 0.0 0.00 0.00 0.00 96 1017.2
20260905133833 11 321 0.0 0.0 0.00 0.00 0.00 96 1017.2
20260905133328 11 314 0.0 0.0 0.00 0.00 0.00 96 1017.1
20260905132827 12 303 0.0 0.0 0.00 0.00 0.00 96 1017.1
20260905132323 12 302 0.0 0.0 0.00 0.00 0.00 95 1017.4
20260905131817 12 307 0.0 0.0 0.00 0.00 0.00 95 1017.1
20260905131313 12 307 0.0 0.0 0.00 0.00 0.00 95 1017.1
20260905130808 12 306 0.0 0.0 0.00 0.00 0.00 95 1017.1
20260905130306 12 309 0.0 0.0 0.00 0.00 0.00 95 1017.4
20260905125802 11 308 0.0 0.0 0.00 0.00 0.00 95 1017.2
20260905125256 12 313 0.0 0.0 0.00 0.00 0.00 95 1017.1
20260905124753 12 314 0.0 0.0 0.00 0.00 0.00 95 1017.1
20260905124249 12 318 0.0 0.0 0.00 0.00 0.00 95 1017.2
20260905123744 12 327 0.0 0.0 0.00 0.00 0.00 95 1017.1
20260905123241 12 322 0.0 0.0 0.00 0.00 0.00 95 1017.0
20260905122740 12 324 0.0 0.0 0.00 0.00 0.00 95 1017.0
20260905122234 11 314 0.0 0.0 0.00 0.00 0.00 95 1017.0
20260905121729 12 317 0.0 0.0 0.00 0.00 0.00 95 1017.1
20260905121226 12 322 0.0 0.0 0.00 0.00 0.00 95 1017.0
20260905120719 12 325 0.0 0.0 0.00 0.00 0.00 95 1016.9
20260905120213 12 323 0.0 0.0 0.00 0.00 0.00 95 1016.8
20260905115708 12 333 0.0 0.0 0.00 0.00 0.00 95 1016.9
20260905115203 12 340 0.0 0.0 0.00 0.00 0.00 95 1016.7
20260905114703 11 341 0.0 0.0 0.00 0.00 0.00 95 1016.7
20260905114200 11 339 0.0 0.0 0.00 0.00 0.00 95 1016.9
20260905113655 11 319 0.0 0.0 0.00 0.00 0.00 94 1017.1
20260905113151 11 312 0.0 0.0 0.00 0.00 0.00 94 1016.9
20260905112651 11 308 0.0 0.0 0.00 0.00 0.00 94 1016.9
20260905112147 12 304 0.0 0.0 0.00 0.00 0.00 94 1017.2
20260905111646 12 307 0.0 0.0 0.00 0.00 0.00 94 1016.9
20260905111146 12 309 0.0 0.0 0.00 0.00 0.00 94 1016.7
20260905110645 12 314 0.0 0.0 0.00 0.00 0.00 94 1016.8
20260905110140 12 308 0.0 0.0 0.00 0.00 0.00 94 1016.8
20260905105635 12 306 0.0 0.0 0.00 0.00 0.00 94 1016.8
20260905105134 12 316 0.0 0.0 0.00 0.00 0.00 93 1016.9
20260905104629 12 317 0.0 0.0 0.00 0.00 0.00 93 1016.8
20260905104125 12 317 0.0 0.0 0.00 0.00 0.00 93 1016.9
20260905103620 12 335 0.0 0.0 0.00 0.00 0.00 93 1016.9
20260905103116 12 334 0.0 0.0 0.00 0.00 0.00 93 1016.9
20260905102611 12 318 0.0 0.0 0.00 0.00 0.00 93 1016.7
20260905102108 12 321 0.0 0.0 0.00 0.00 0.00 93 1017.0
20260905101606 12 317 0.0 0.0 0.00 0.00 0.00 93 1016.7
20260905101104 12 321 0.0 0.0 0.00 0.00 0.00 93 1016.7
20260905100601 12 337 0.0 0.0 0.00 0.00 0.00 93 1016.6
20260905100055 12 325 0.0 0.0 0.00 0.00 0.00 93 1016.6
20260905095549 12 328 0.0 0.0 0.00 0.00 0.00 93 1016.4
20260905095045 12 345 0.0 0.0 0.00 0.00 0.00 93 1016.6
20260905094539 12 324 0.0 0.0 0.00 0.00 0.00 92 1016.3
20260905094039 12 318 0.0 0.0 0.00 0.00 0.00 92 1016.7
20260905093533 12 313 0.0 0.0 0.00 0.00 0.00 92 1016.5
20260905093030 12 315 0.0 0.0 0.00 0.00 0.00 92 1016.5
20260905092529 12 318 0.0 0.0 0.00 0.00 0.00 91 1016.6
20260905092025 12 323 0.0 0.0 0.00 0.00 0.00 91 1016.5
20260905091524 13 346 0.0 0.0 0.00 0.00 0.00 91 1016.5
20260905091019 13 328 0.0 0.0 0.00 0.00 0.00 91 1016.3
20260905090519 13 0 0.0 0.0 0.00 0.00 0.00 90 1016.2
20260905090014 13 12 0.0 0.0 0.00 0.00 0.00 90 1016.2
20260905085512 13 346 0.0 0.0 0.00 0.00 0.00 90 1016.2
20260905085008 13 353 0.0 0.0 0.00 0.00 0.00 90 1016.6
20260905084503 13 358 0.0 0.0 0.00 0.00 0.00 89 1016.2
20260905083958 13 346 0.0 0.0 0.00 0.00 0.00 89 1016.2
20260905083453 13 356 0.0 1.6 0.00 0.00 0.00 89 1016.4
20260905082949 13 46 0.0 0.0 0.00 0.00 0.00 88 1016.3
20260905082444 13 79 1.6 1.6 0.00 0.00 0.00 88 1016.3
20260905081939 13 68 1.6 3.2 0.00 0.00 0.00 88 1016.4
20260905081434 13 63 0.0 0.0 0.00 0.00 0.00 87 1016.3
20260905080933 13 341 0.0 0.0 0.00 0.00 0.00 87 1016.4
20260905080428 13 28 1.6 1.6 0.00 0.00 0.00 86 1016.3
20260905075927 13 26 1.6 1.6 0.00 0.00 0.00 86 1016.3
20260905075422 13 10 0.0 0.0 0.00 0.00 0.00 86 1016.2
20260905074921 13 351 1.6 1.6 0.00 0.00 0.00 86 1016.2
20260905074416 13 25 3.2 4.8 0.00 0.00 0.00 86 1016.0
20260905073912 13 25 1.6 3.2 0.00 0.00 0.00 86 1016.0
20260905073407 13 26 3.2 3.2 0.00 0.00 0.00 86 1016.2
20260905072903 13 20 3.2 3.2 0.00 0.00 0.00 85 1016.2
20260905072356 13 358 4.8 4.8 0.00 0.00 0.00 86 1016.1
20260905071852 14 323 0.0 0.0 0.00 0.00 0.00 86 1016.0
20260905071343 14 350 3.2 3.2 0.00 0.00 0.00 86 1016.1
20260905070837 14 336 0.0 1.6 0.00 0.00 0.00 86 1016.3
20260905070334 14 315 1.6 1.6 0.00 0.00 0.00 85 1015.9
20260905065833 14 344 4.8 4.8 0.00 0.00 0.00 85 1016.0
20260905065331 14 326 0.0 0.0 0.00 0.00 0.00 84 1015.9
20260905064827 14 336 0.0 0.0 0.00 0.00 0.00 84 1016.0
20260905064323 14 302 1.6 1.6 0.00 0.00 0.00 84 1015.8
20260905063820 14 318 0.0 0.0 0.00 0.00 0.00 83 1015.7
20260905063316 14 315 0.0 0.0 0.00 0.00 0.00 83 1015.9
20260905062813 14 327 1.6 1.6 0.00 0.00 0.00 83 1015.8
20260905062307 14 317 0.0 0.0 0.00 0.00 0.00 84 1015.8
20260905061802 14 323 1.6 1.6 0.00 0.00 0.00 83 1015.7
20260905061256 14 322 1.6 1.6 0.00 0.00 0.00 83 1016.1
20260905060750 14 295 0.0 0.0 0.00 0.00 0.00 83 1015.9
20260905060248 15 324 0.0 0.0 0.00 0.00 0.00 83 1015.9
20260905055746 15 357 1.6 1.6 0.00 0.00 0.00 82 1015.8
20260905055241 15 350 6.4 8.0 0.00 0.00 0.00 82 1016.0
20260905054736 15 327 0.0 0.0 0.00 0.00 0.00 81 1016.0
20260905054232 15 331 0.0 1.6 0.00 0.00 0.00 80 1015.6
20260905053731 15 326 1.6 3.2 0.00 0.00 0.00 80 1015.9
20260905053226 15 339 1.6 1.6 0.00 0.00 0.00 80 1015.6
20260905052721 15 348 3.2 3.2 0.00 0.00 0.00 80 1015.5
20260905052216 15 350 1.6 1.6 0.00 0.00 0.00 80 1015.6
20260905051715 15 8 0.0 0.0 0.00 0.00 0.00 80 1015.5
20260905051212 15 359 0.0 0.0 0.00 0.00 0.00 80 1015.7
20260905050708 15 27 0.0 0.0 0.00 0.00 0.00 79 1015.8
20260905050205 15 353 0.0 0.0 0.00 0.00 0.00 79 1015.6
20260905045704 15 10 0.0 0.0 0.00 0.00 0.00 79 1015.6
20260905045200 15 24 4.8 8.0 0.00 0.00 0.00 79 1015.7
20260905044655 15 70 3.2 3.2 0.00 0.00 0.00 79 1015.6
20260905044150 15 35 4.8 4.8 0.00 0.00 0.00 78 1015.6
20260905043649 15 46 4.8 4.8 0.00 0.00 0.00 77 1015.7
20260905043144 15 17 3.2 3.2 0.00 0.00 0.00 77 1015.7
20260905042643 15 51 6.4 9.7 0.00 0.00 0.00 76 1015.7
20260905042137 15 23 8.0 9.7 0.00 0.00 0.00 75 1015.6
20260905041633 15 55 6.4 9.7 0.00 0.00 0.00 75 1015.7
20260905041129 15 62 6.4 9.7 0.00 0.00 0.00 76 1015.7
20260905040629 15 72 3.2 3.2 0.00 0.00 0.00 76 1015.9
20260905040127 15 58 6.4 8.0 0.00 0.00 0.00 77 1015.7
20260905035623 15 57 4.8 8.0 0.00 0.00 0.00 77 1015.9
20260905035119 15 80 6.4 8.0 0.00 0.00 0.00 77 1015.6
20260905034614 15 75 1.6 3.2 0.00 0.00 0.00 77 1015.6
20260905034109 16 32 4.8 8.0 0.00 0.00 0.00 77 1015.6
20260905033608 16 31 6.4 9.7 0.00 0.00 0.00 76 1015.7
20260905033104 16 58 4.8 8.0 0.00 0.00 0.00 76 1015.5
20260905032604 16 68 9.7 11.3 0.00 0.00 0.00 75 1015.3
20260905032104 16 55 1.6 4.8 0.00 0.00 0.00 75 1015.7
20260905031559 16 67 4.8 4.8 0.00 0.00 0.00 74 1015.6
20260905031059 16 71 4.8 8.0 0.00 0.00 0.00 74 1015.3
20260905030554 16 63 4.8 8.0 0.00 0.00 0.00 76 1015.2
20260905030049 16 67 3.2 8.0 0.00 0.00 0.00 75 1015.3
20260905025545 16 60 6.4 9.7 0.00 0.00 0.00 74 1015.1
20260905025041 17 43 8.0 11.3 0.00 0.00 0.00 72 1015.3
20260905024536 17 75 1.6 3.2 0.00 0.00 0.00 71 1015.1
20260905024031 17 73 3.2 4.8 0.00 0.00 0.00 70 1014.8
20260905023527 17 142 3.2 3.2 0.00 0.00 0.00 70 1015.1
20260905023021 17 52 3.2 3.2 0.00 0.00 0.00 70 1015.0
20260905022521 17 64 4.8 4.8 0.00 0.00 0.00 70 1015.0
20260905022016 17 116 4.8 4.8 0.00 0.00 0.00 70 1015.1
20260905021515 17 85 4.8 8.0 0.00 0.00 0.00 69 1015.0
20260905021011 17 74 1.6 3.2 0.00 0.00 0.00 69 1015.1
20260905020505 17 97 9.7 11.3 0.00 0.00 0.00 69 1015.1
20260905015959 17 138 8.0 11.3 0.00 0.00 0.00 70 1014.9
20260905015458 17 146 9.7 12.9 0.00 0.00 0.00 70 1014.9
20260905014957 17 50 8.0 9.7 0.00 0.00 0.00 70 1015.2
20260905014453 18 56 6.4 11.3 0.00 0.00 0.00 69 1014.9
20260905013948 18 86 1.6 4.8 0.00 0.00 0.00 68 1014.7
20260905013444 18 40 9.7 14.5 0.00 0.00 0.00 66 1014.8
20260905012939 18 84 6.4 9.7 0.00 0.00 0.00 65 1014.8
20260905012434 20 128 14.5 20.9 0.00 0.00 0.00 62 1014.8
20260905011931 20 110 3.2 4.8 0.00 0.00 0.00 61 1014.5
20260905011427 20 82 11.3 12.9 0.00 0.00 0.00 59 1014.4
20260905010922 20 2 0.0 0.0 0.00 0.00 0.00 57 1014.5
20260905010417 21 47 3.2 9.7 0.00 0.00 0.00 56 1014.5
20260905005913 21 332 4.8 8.0 0.00 0.00 0.00 56 1014.2
20260905005409 21 292 0.0 0.0 0.00 0.00 0.00 56 1014.2
20260905004904 21 304 1.6 4.8 0.00 0.00 0.00 55 1014.2
20260905004403 22 318 3.2 4.8 0.00 0.00 0.00 52 1014.2
20260905003859 21 318 0.0 0.0 0.00 0.00 0.00 56 1014.0
20260905003355 21 318 4.8 9.7 0.00 0.00 0.00 53 1013.9
20260905002850 22 271 3.2 4.8 0.00 0.00 0.00 52 1013.7
20260905002350 21 318 1.6 3.2 0.00 0.00 0.00 56 1013.7
20260905001844 21 347 0.0 0.0 0.00 0.00 0.00 55 1013.9
20260905001339 22 336 3.2 4.8 0.00 0.00 0.00 52 1013.9
20260905000834 21 347 0.0 0.0 0.00 0.00 0.00 56 1013.6
20260905000329 21 302 0.0 1.6 0.00 0.00 0.00 54 1013.9
20260904235825 21 339 0.0 0.0 0.00 0.00 0.00 57 1013.9
20260904235320 22 349 6.4 9.7 0.00 0.00 0.00 54 1013.6